| time (UTC) | temp F | wind direction | speed MPH | gust MPH | rain 1hr in | rain 24hr in | rain mn in | humidity % | barometer mb |
| 20260504040519 | 35 | 269 | 6.0 | 16.0 | 0.02 | 0.65 | 0.02 | 94 | 987.2 |
| 20260504040018 | 36 | 263 | 6.0 | 16.0 | 0.02 | 0.65 | 0.02 | 94 | 987.2 |
| 20260504035523 | 36 | 243 | 6.0 | 16.0 | 0.02 | 0.65 | 0.02 | 94 | 987.0 |
| 20260504035030 | 36 | 272 | 5.0 | 16.0 | 0.02 | 0.65 | 0.02 | 94 | 986.7 |
| 20260504034519 | 36 | 276 | 5.0 | 14.0 | 0.02 | 0.65 | 0.02 | 94 | 986.4 |
| 20260504034012 | 37 | 250 | 5.0 | 14.0 | 0.01 | 0.64 | 0.01 | 94 | 986.2 |
| 20260504033519 | 37 | 229 | 4.0 | 16.0 | 0.01 | 0.64 | 0.01 | 94 | 986.1 |
| 20260504033019 | 37 | 252 | 7.0 | 16.0 | 0.01 | 0.64 | 0.01 | 94 | 985.9 |
| 20260504032513 | 37 | 323 | 4.0 | 13.0 | 0.01 | 0.64 | 0.01 | 94 | 985.7 |
| 20260504032030 | 38 | 262 | 6.0 | 13.0 | 0.00 | 0.63 | 0.00 | 94 | 985.3 |
| 20260504031518 | 38 | 231 | 5.0 | 13.0 | 0.00 | 0.63 | 0.00 | 94 | 985.2 |
| 20260504031011 | 38 | 288 | 5.0 | 14.0 | 0.00 | 0.63 | 0.00 | 94 | 985.0 |
| 20260504030519 | 38 | 295 | 5.0 | 14.0 | 0.00 | 0.63 | 0.00 | 94 | 984.8 |
| 20260504030019 | 39 | 281 | 4.0 | 12.0 | 0.00 | 0.63 | 0.00 | 94 | 984.6 |
| 20260504025512 | 39 | 289 | 5.0 | 12.0 | 0.00 | 0.63 | 0.63 | 94 | 984.3 |
| 20260504025019 | 39 | 300 | 5.0 | 14.0 | 0.01 | 0.63 | 0.63 | 94 | 984.0 |
| 20260504024512 | 39 | 286 | 6.0 | 18.0 | 0.01 | 0.63 | 0.63 | 94 | 983.7 |
| 20260504024019 | 39 | 320 | 5.0 | 18.0 | 0.01 | 0.63 | 0.63 | 94 | 983.4 |
| 20260504023512 | 39 | 331 | 7.0 | 18.0 | 0.02 | 0.63 | 0.63 | 94 | 983.0 |
| 20260504023019 | 39 | 266 | 8.0 | 19.0 | 0.02 | 0.63 | 0.63 | 94 | 982.8 |
| 20260504022529 | 39 | 316 | 6.0 | 19.0 | 0.02 | 0.63 | 0.63 | 94 | 982.6 |
| 20260504022012 | 39 | 294 | 10.0 | 19.0 | 0.02 | 0.63 | 0.63 | 94 | 982.2 |
| 20260504021530 | 39 | 325 | 8.0 | 17.0 | 0.02 | 0.63 | 0.63 | 94 | 982.0 |
| 20260504021019 | 39 | 302 | 7.0 | 27.0 | 0.03 | 0.63 | 0.63 | 95 | 981.7 |
| 20260504020523 | 39 | 300 | 9.0 | 27.0 | 0.03 | 0.63 | 0.63 | 94 | 981.6 |
| 20260504020019 | 39 | 269 | 10.0 | 20.0 | 0.03 | 0.63 | 0.63 | 94 | 981.4 |
| 20260504015518 | 39 | 302 | 10.0 | 21.0 | 0.03 | 0.62 | 0.62 | 94 | 981.4 |
| 20260504015012 | 39 | 317 | 13.0 | 21.0 | 0.03 | 0.62 | 0.62 | 94 | 981.1 |
| 20260504014531 | 39 | 310 | 11.0 | 21.0 | 0.03 | 0.62 | 0.62 | 94 | 981.2 |
| 20260504014019 | 39 | 299 | 11.0 | 21.0 | 0.03 | 0.62 | 0.62 | 94 | 981.0 |
| 20260504013512 | 39 | 338 | 11.0 | 19.0 | 0.02 | 0.61 | 0.61 | 94 | 980.8 |
| 20260504013019 | 39 | 323 | 11.0 | 21.0 | 0.02 | 0.61 | 0.61 | 94 | 980.4 |
| 20260504012530 | 39 | 349 | 12.0 | 26.0 | 0.02 | 0.61 | 0.61 | 94 | 980.1 |
| 20260504012011 | 39 | 341 | 13.0 | 24.0 | 0.03 | 0.61 | 0.61 | 94 | 980.0 |
| 20260504011520 | 40 | 328 | 9.0 | 22.0 | 0.03 | 0.61 | 0.61 | 94 | 979.6 |
| 20260504011024 | 40 | 316 | 11.0 | 22.0 | 0.02 | 0.60 | 0.60 | 94 | 979.5 |
| 20260504010511 | 40 | 345 | 14.0 | 22.0 | 0.03 | 0.60 | 0.60 | 94 | 979.3 |
| 20260504010019 | 40 | 318 | 8.0 | 16.0 | 0.02 | 0.59 | 0.59 | 94 | 979.2 |
| 20260504005529 | 40 | 308 | 9.0 | 17.0 | 0.02 | 0.59 | 0.59 | 94 | 978.9 |
| 20260504005012 | 40 | 305 | 9.0 | 19.0 | 0.03 | 0.59 | 0.59 | 94 | 978.3 |
| 20260504004519 | 40 | 296 | 13.0 | 21.0 | 0.03 | 0.59 | 0.59 | 94 | 978.2 |
| 20260504004018 | 40 | 23 | 11.0 | 21.0 | 0.04 | 0.59 | 0.59 | 94 | 977.9 |
| 20260504003512 | 40 | 319 | 12.0 | 26.0 | 0.05 | 0.59 | 0.59 | 94 | 977.8 |
| 20260504003019 | 40 | 351 | 11.0 | 26.0 | 0.05 | 0.59 | 0.59 | 94 | 977.7 |
| 20260504002519 | 40 | 255 | 10.0 | 22.0 | 0.04 | 0.58 | 0.58 | 94 | 977.3 |
| 20260504002023 | 41 | 314 | 9.0 | 21.0 | 0.05 | 0.58 | 0.58 | 94 | 977.3 |
| 20260504001531 | 42 | 314 | 6.0 | 15.0 | 0.05 | 0.58 | 0.58 | 95 | 977.2 |
| 20260504001019 | 42 | 359 | 7.0 | 15.0 | 0.04 | 0.57 | 0.57 | 95 | 977.2 |
| 20260504000512 | 42 | 338 | 4.0 | 13.0 | 0.04 | 0.57 | 0.57 | 95 | 977.2 |
| 20260504000020 | 42 | 61 | 6.0 | 13.0 | 0.04 | 0.57 | 0.57 | 95 | 977.4 |
| 20260503235518 | 42 | 45 | 6.0 | 17.0 | 0.03 | 0.56 | 0.56 | 95 | 977.1 |
| 20260503235012 | 42 | 79 | 8.0 | 17.0 | 0.03 | 0.56 | 0.56 | 95 | 977.5 |
| 20260503234524 | 42 | 31 | 8.0 | 14.0 | 0.02 | 0.55 | 0.55 | 95 | 977.6 |
| 20260503234018 | 42 | 1 | 7.0 | 17.0 | 0.03 | 0.55 | 0.55 | 95 | 977.7 |
| 20260503233523 | 41 | 75 | 9.0 | 18.0 | 0.02 | 0.54 | 0.54 | 95 | 978.1 |
| 20260503233019 | 41 | 32 | 7.0 | 18.0 | 0.02 | 0.54 | 0.54 | 94 | 978.4 |
| 20260503232519 | 41 | 128 | 10.0 | 18.0 | 0.03 | 0.54 | 0.54 | 94 | 978.3 |
| 20260503232012 | 41 | 63 | 11.0 | 22.0 | 0.02 | 0.53 | 0.53 | 94 | 978.5 |
| 20260503231520 | 41 | 84 | 12.0 | 25.0 | 0.02 | 0.53 | 0.53 | 94 | 978.4 |
| 20260503231018 | 40 | 84 | 16.0 | 26.0 | 0.02 | 0.53 | 0.53 | 94 | 978.5 |
| 20260503230512 | 40 | 78 | 16.0 | 26.0 | 0.03 | 0.53 | 0.53 | 94 | 978.6 |
| 20260503230022 | 40 | 44 | 15.0 | 30.0 | 0.03 | 0.53 | 0.53 | 94 | 978.8 |
| 20260503225530 | 40 | 50 | 19.0 | 31.0 | 0.03 | 0.53 | 0.53 | 94 | 978.8 |
| 20260503225012 | 40 | 81 | 18.0 | 34.0 | 0.03 | 0.53 | 0.53 | 94 | 979.1 |
| 20260503224520 | 40 | 113 | 18.0 | 34.0 | 0.03 | 0.53 | 0.53 | 94 | 979.4 |
| 20260503224018 | 40 | 77 | 19.0 | 31.0 | 0.02 | 0.52 | 0.52 | 94 | 979.5 |
| 20260503223512 | 40 | 81 | 17.0 | 34.0 | 0.03 | 0.52 | 0.52 | 94 | 979.7 |
| 20260503223021 | 40 | 91 | 19.0 | 38.0 | 0.03 | 0.52 | 0.52 | 94 | 979.9 |
| 20260503222529 | 40 | 72 | 22.0 | 38.0 | 0.02 | 0.51 | 0.51 | 94 | 980.3 |
| 20260503222013 | 40 | 70 | 23.0 | 36.0 | 0.03 | 0.51 | 0.51 | 94 | 980.3 |
| 20260503221531 | 39 | 79 | 19.0 | 37.0 | 0.03 | 0.51 | 0.51 | 94 | 980.7 |
| 20260503221019 | 39 | 54 | 20.0 | 37.0 | 0.03 | 0.51 | 0.51 | 94 | 980.8 |
| 20260503220513 | 39 | 79 | 19.0 | 34.0 | 0.02 | 0.50 | 0.50 | 94 | 981.2 |
| 20260503220020 | 39 | 146 | 20.0 | 33.0 | 0.03 | 0.50 | 0.50 | 94 | 981.6 |
| 20260503215519 | 39 | 70 | 21.0 | 34.0 | 0.03 | 0.50 | 0.50 | 94 | 982.1 |
| 20260503215012 | 39 | 58 | 17.0 | 35.0 | 0.04 | 0.50 | 0.50 | 94 | 982.5 |
| 20260503214531 | 39 | 94 | 22.0 | 35.0 | 0.04 | 0.50 | 0.50 | 94 | 982.3 |
| 20260503214019 | 39 | 75 | 19.0 | 33.0 | 0.05 | 0.50 | 0.50 | 94 | 982.9 |
| 20260503213512 | 39 | 67 | 20.0 | 33.0 | 0.05 | 0.49 | 0.49 | 94 | 983.2 |
| 20260503213020 | 39 | 73 | 20.0 | 36.0 | 0.05 | 0.49 | 0.49 | 94 | 983.5 |
| 20260503212519 | 39 | 79 | 21.0 | 37.0 | 0.06 | 0.49 | 0.49 | 94 | 984.2 |
| 20260503212013 | 39 | 47 | 20.0 | 35.0 | 0.05 | 0.48 | 0.48 | 94 | 984.4 |
| 20260503211520 | 39 | 109 | 20.0 | 40.0 | 0.06 | 0.48 | 0.48 | 94 | 985.0 |
| 20260503211035 | 39 | 50 | 17.0 | 40.0 | 0.06 | 0.48 | 0.48 | 94 | 985.1 |
| 20260503210513 | 39 | 75 | 20.0 | 36.0 | 0.07 | 0.48 | 0.48 | 94 | 985.7 |
| 20260503210020 | 39 | 25 | 18.0 | 36.0 | 0.06 | 0.47 | 0.47 | 94 | 985.9 |
| 20260503205519 | 39 | 75 | 21.0 | 32.0 | 0.07 | 0.47 | 0.47 | 94 | 986.3 |
| 20260503205025 | 39 | 58 | 20.0 | 35.0 | 0.06 | 0.46 | 0.46 | 94 | 986.3 |
| 20260503204021 | 39 | 51 | 17.0 | 39.0 | 0.06 | 0.45 | 0.45 | 94 | 987.1 |
| 20260503203519 | 39 | 67 | 23.0 | 39.0 | 0.06 | 0.44 | 0.44 | 94 | 987.6 |
| 20260503203017 | 39 | 71 | 23.0 | 32.0 | 0.05 | 0.43 | 0.43 | 94 | 987.6 |
| 20260503202519 | 39 | 106 | 20.0 | 34.0 | 0.06 | 0.43 | 0.43 | 94 | 988.1 |
| 20260503202019 | 39 | 59 | 21.0 | 34.0 | 0.06 | 0.43 | 0.43 | 94 | 988.3 |
| 20260503201518 | 38 | 113 | 20.0 | 33.0 | 0.07 | 0.42 | 0.42 | 94 | 988.7 |
| 20260503195513 | 39 | 64 | 17.0 | 35.0 | 0.14 | 0.40 | 0.40 | 94 | 990.1 |
| 20260503195020 | 39 | 105 | 15.0 | 32.0 | 0.15 | 0.40 | 0.40 | 94 | 990.2 |
| 20260503194520 | 39 | 79 | 20.0 | 32.0 | 0.14 | 0.39 | 0.39 | 94 | 990.7 |
| 20260503194013 | 39 | 103 | 18.0 | 33.0 | 0.15 | 0.39 | 0.39 | 94 | 991.0 |
| 20260503193520 | 39 | 108 | 20.0 | 34.0 | 0.15 | 0.38 | 0.38 | 93 | 991.3 |
| 20260503193020 | 39 | 25 | 19.0 | 34.0 | 0.15 | 0.38 | 0.38 | 93 | 991.8 |
| 20260503192514 | 39 | 60 | 14.0 | 23.0 | 0.15 | 0.37 | 0.37 | 93 | 992.3 |
| 20260503191523 | 39 | 117 | 14.0 | 33.0 | 0.15 | 0.35 | 0.35 | 93 | 992.7 |
| 20260503185512 | 39 | 113 | 13.0 | 29.0 | 0.09 | 0.26 | 0.26 | 93 | 993.5 |
| 20260503185031 | 39 | 255 | 13.0 | 29.0 | 0.08 | 0.25 | 0.25 | 93 | 993.6 |
| 20260503184519 | 39 | 103 | 13.0 | 33.0 | 0.09 | 0.25 | 0.25 | 92 | 993.9 |
| 20260503184013 | 39 | 95 | 18.0 | 33.0 | 0.08 | 0.24 | 0.24 | 92 | 994.4 |
| 20260503183521 | 39 | 73 | 17.0 | 28.0 | 0.08 | 0.23 | 0.23 | 92 | 995.0 |
| 20260503183019 | 39 | 108 | 15.0 | 28.0 | 0.08 | 0.22 | 0.22 | 92 | 995.4 |
| 20260503182513 | 39 | 58 | 12.0 | 33.0 | 0.09 | 0.22 | 0.22 | 92 | 995.8 |
| 20260503181020 | 39 | 134 | 16.0 | 24.0 | 0.09 | 0.19 | 0.19 | 92 | 996.4 |
| 20260503180535 | 39 | 62 | 14.0 | 24.0 | 0.08 | 0.18 | 0.18 | 92 | 996.6 |
| 20260503180021 | 39 | 19 | 12.0 | 22.0 | 0.09 | 0.18 | 0.18 | 92 | 997.2 |
| 20260503175523 | 39 | 113 | 13.0 | 22.0 | 0.09 | 0.17 | 0.17 | 92 | 997.5 |
| 20260503175013 | 39 | 72 | 11.0 | 24.0 | 0.09 | 0.17 | 0.17 | 92 | 997.7 |
| 20260503172520 | 39 | 47 | 11.0 | 20.0 | 0.07 | 0.13 | 0.13 | 92 | 999.0 |
| 20260503172019 | 40 | 65 | 12.0 | 20.0 | 0.06 | 0.12 | 0.12 | 92 | 999.2 |
| 20260503171513 | 40 | 135 | 9.0 | 21.0 | 0.05 | 0.11 | 0.11 | 91 | 999.4 |
| 20260503150520 | 41 | 127 | 7.0 | 13.0 | 0.01 | 0.01 | 0.01 | 89 | 1007.0 |
| 20260503131021 | 42 | 338 | 6.0 | 13.0 | 0.00 | 0.00 | 0.00 | 86 | 1010.2 |
| 20260503130519 | 42 | 97 | 4.0 | 11.0 | 0.00 | 0.00 | 0.00 | 86 | 1010.0 |
| 20260503110519 | 41 | 100 | 2.0 | 7.0 | 0.00 | 0.00 | 0.00 | 88 | 1011.8 |
| 20260503081514 | 40 | 138 | 1.0 | 3.0 | 0.00 | 0.00 | 0.00 | 87 | 1013.8 |
| 20260503081021 | 40 | 86 | 1.0 | 3.0 | 0.00 | 0.00 | 0.00 | 87 | 1013.9 |
| 20260503080531 | 40 | 132 | 0.0 | 3.0 | 0.00 | 0.00 | 0.00 | 87 | 1013.9 |
| 20260503072521 | 40 | 108 | 1.0 | 3.0 | 0.00 | 0.00 | 0.00 | 87 | 1014.1 |
| 20260503072020 | 40 | 124 | 1.0 | 3.0 | 0.00 | 0.00 | 0.00 | 87 | 1014.3 |
| 20260503071514 | 40 | 115 | 1.0 | 3.0 | 0.00 | 0.00 | 0.00 | 86 | 1014.3 |
| 20260503071032 | 40 | 129 | 1.0 | 3.0 | 0.00 | 0.00 | 0.00 | 86 | 1014.2 |
| 20260503070521 | 40 | 98 | 1.0 | 3.0 | 0.00 | 0.00 | 0.00 | 86 | 1014.4 |
| 20260503055021 | 40 | 93 | 1.0 | 2.0 | 0.00 | 0.00 | 0.00 | 83 | 1014.7 |
| 20260503054514 | 40 | 111 | 0.0 | 1.0 | 0.00 | 0.00 | 0.00 | 83 | 1014.8 |
| 20260503054021 | 40 | 1 | 0.0 | 1.0 | 0.00 | 0.00 | 0.00 | 83 | 1014.9 |
| 20260503053520 | 40 | 1 | 0.0 | 1.0 | 0.00 | 0.00 | 0.00 | 83 | 1014.8 |
| 20260503053015 | 39 | 1 | 0.0 | 1.0 | 0.00 | 0.00 | 0.00 | 82 | 1014.9 |
| 20260503052521 | 39 | 1 | 0.0 | 1.0 | 0.00 | 0.00 | 0.00 | 82 | 1015.0 |
| 20260503052020 | 39 | 1 | 0.0 | 1.0 | 0.00 | 0.00 | 0.00 | 81 | 1015.1 |
| 20260503051514 | 39 | 1 | 0.0 | 1.0 | 0.00 | 0.00 | 0.00 | 81 | 1015.2 |
| 20260503051021 | 40 | 1 | 0.0 | 1.0 | 0.00 | 0.00 | 0.00 | 80 | 1015.3 |
| 20260503050535 | 40 | 1 | 0.0 | 1.0 | 0.00 | 0.00 | 0.00 | 80 | 1015.2 |
| 20260503050015 | 40 | 1 | 0.0 | 2.0 | 0.00 | 0.00 | 0.00 | 81 | 1015.1 |
| 20260503045521 | 40 | 1 | 1.0 | 2.0 | 0.00 | 0.00 | 0.00 | 81 | 1015.2 |
| 20260503045018 | 40 | 230 | 0.0 | 1.0 | 0.00 | 0.00 | 0.00 | 82 | 1015.4 |
| 20260503044513 | 40 | 230 | 0.0 | 1.0 | 0.00 | 0.00 | 0.00 | 82 | 1015.5 |
| 20260503044021 | 40 | 230 | 0.0 | 1.0 | 0.00 | 0.00 | 0.00 | 82 | 1015.6 |
| 20260503043520 | 39 | 230 | 0.0 | 1.0 | 0.00 | 0.00 | 0.00 | 82 | 1015.6 |
| 20260503043014 | 39 | 230 | 0.0 | 1.0 | 0.00 | 0.00 | 0.00 | 82 | 1015.7 |
| 20260503042521 | 39 | 230 | 0.0 | 1.0 | 0.00 | 0.00 | 0.00 | 83 | 1015.7 |
| 20260503042018 | 39 | 230 | 0.0 | 1.0 | 0.00 | 0.00 | 0.00 | 82 | 1015.7 |
| 20260503041519 | 39 | 230 | 0.0 | 1.0 | 0.00 | 0.00 | 0.00 | 82 | 1015.7 |
| 20260503041021 | 39 | 230 | 0.0 | 0.0 | 0.00 | 0.00 | 0.00 | 82 | 1015.8 |